Regional Weather Roundup
Issued by NWS

Home | Current Version | Previous Version | Text Only | Print | Product List | Glossary On
Versions: 1 2 3 4 5 6 7 8 9 10 11 12 13 14 15 16 17 18 19 20 21 22 23 24 25 26 27 28 29 30 31 32 33 34 35 36 37 38 39 40 41 42 43 44 45 46 47 48 49 50
000
ASUS43 KMKX 280359
RWRWI

WISCONSIN REGIONAL WEATHER ROUNDUP
NATIONAL WEATHER SERVICE MILWAUKEE/SULLIVAN WI
1100 PM CDT FRI MAR 27 2015

NOTE: "FAIR" INDICATES FEW OR NO CLOUDS BELOW 12,000 FEET WITH NO
SIGNIFICANT WEATHER AND/OR OBSTRUCTIONS TO VISIBILITY.

WIZ001-002-006>008-014>016-023>028-280500-
NORTHWEST WISCONSIN

CITY           SKY/WX    TMP DP  RH WIND       PRES   REMARKS
SUPERIOR ARPT  PTCLDY    24  18  77 NE6       30.20R WCI  17
ASHLAND        CLEAR     14  10  84 CALM      30.20S
HAYWARD        PTCLDY    22   7  52 N6        30.17R WCI  14
SIREN          PTCLDY    24   6  46 CALM      30.17S
CUMBERLAND     MOCLDY    27  18  69 CALM      30.16R
RICE LAKE      PTCLDY    25  17  71 CALM      30.18R
CHETEK         PTCLDY    22  13  69 CALM      30.17R
LADYSMITH      CLEAR     25  12  59 CALM      30.17S
EAU CLAIRE     NOT AVBL
MENOMONIE      PTCLDY    28  12  51 SW6       30.19R WCI  22
NEW RICHMOND   PTCLDY    26  12  55 SW5       30.18S WCI  20
OSCEOLA        PTCLDY    27  13  54 S5        30.21R WCI  22
$$

WIZ003>005-009-010-017-018-280500-
NORTH CENTRAL WISCONSIN

CITY           SKY/WX    TMP DP  RH WIND       PRES   REMARKS
MANITOWISH WTR CLEAR     17   6  62 CALM      30.15R
ARBOR VITAE    CLEAR     20   6  54 CALM      30.15R
WOODRUFF       CLEAR     20   6  54 CALM      30.15R
RHINELANDER    CLEAR     19  -1  41 N3        30.15R
EAGLE RIVER    CLEAR     14   2  58 CALM      30.15R
LAND O LAKES   CLEAR      8   3  80 CALM      30.15S
PHILLIPS       PTCLDY    23   9  54 NE3       30.14S
TOMAHAWK       CLEAR     14   5  69 CALM      30.16R
MEDFORD        CLEAR     24  11  57 CALM      30.14S
MERRILL        CLEAR     16  11  79 CALM      30.16R
$$

WIZ029-030-035-036-043>047-280500-
CENTRAL WISCONSIN

CITY           SKY/WX    TMP DP  RH WIND       PRES   REMARKS
WAUSAU         CLEAR     22   9  57 E3        30.16R
MOSINEE        CLEAR     23  10  58 CALM      30.17S
MARSHFIELD     CLEAR     23  12  62 CALM      30.16S
STEVENS POINT  CLEAR     18   7  62 CALM      30.18S
WAUPACA        CLEAR     23  11  61 SE5       30.21R WCI  17
WAUTOMA        NOT AVBL
WISC RAPIDS    CLEAR     19   7  59 CALM      30.19S
CAMP DOUGLAS   CLEAR     18  13  80 W1        30.19R
$$

WIZ011>013-019>022-031-037>040-048>050-280500-
NORTHEAST WISCONSIN

CITY           SKY/WX    TMP DP  RH WIND       PRES   REMARKS
ANTIGO         CLEAR     19   7  59 SE8       30.15S WCI   9
SHAWANO        CLEAR     20  12  69 E5        30.22S WCI  14
OCONTO         CLEAR     21   4  48 CALM      30.23R
STURGEON BAY   CLEAR     19   5  53 N5        30.24R WCI  13
GREEN BAY      CLEAR     22  12  65 CALM      30.23R
MANITOWOC      NOT AVBL
APPLETON       PTCLDY    23   7  50 VRB3      30.21R
CLINTONVILLE   CLEAR     23  10  58 E3        30.20S
OSHKOSH        CLEAR     19  10  68 S3        30.21R
$$

WIZ032>034-041-042-053>061-280500-
SOUTHWEST WISCONSIN

CITY           SKY/WX    TMP DP  RH WIND       PRES   REMARKS
LA CROSSE      PTCLDY    25  14  63 CALM      30.20R
SPARTA         CLEAR     19  11  70 E3        30.20S
VIROQUA        PTCLDY    25  10  51 W5        30.17R WCI  19
BOSCOBEL       CLEAR     23  14  68 CALM      30.21S
PRAIRIE DU CHI CLEAR     23  13  65 CALM      30.21S
PLATTEVILLE    FAIR      27  10  49 W5        30.18S WCI  21
$$

WIZ056-057-062-063-064-067-068-280500-
SOUTH CENTRAL WISCONSIN

CITY           SKY/WX    TMP DP  RH WIND       PRES   REMARKS
REEDSBURG      CLEAR     23   6  46 CALM      30.19S
BARABOO/DELLS  CLEAR     23   6  47 SE3       30.19S
LONE ROCK      NOT AVBL
MINERAL POINT  CLEAR     25   9  50 W3        30.17S
MADISON        FAIR      25   7  46 S3        30.20S
MIDDLETON      FAIR      26  10  50 SE7       30.20S WCI  18
WATERTOWN      CLEAR     20  13  73 SE5       30.20S WCI  14
MONROE         CLEAR     27   9  46 E6        30.19R WCI  20
JANESVILLE     CLEAR     25  16  68 SE7       30.21R WCI  17
$$

WIZ051-052-058>065-066-070>072-280500-
SOUTHEAST WISCONSIN

CITY           SKY/WX    TMP DP  RH WIND       PRES   REMARKS
MILWAUKEE      CLEAR     24  11  57 N3        30.22R
WAUKESHA       CLEAR     18  12  79 CALM      30.22R
MILWAUKEE/TIMM CLEAR     21  12  68 NW3       30.23S
RACINE         CLEAR     23  12  62 N7        30.23S WCI  15
BURLINGTON     CLEAR     17  12  80 CALM      30.22R
KENOSHA        CLEAR     19  14  81 CALM      30.22R
FOND DU LAC    FAIR      20  11  68 SE6       30.21R WCI  12
SHEBOYGAN      CLEAR     19  13  77 CALM      30.22R
WEST BEND      CLEAR     19  14  79 CALM      30.21S
JUNEAU         CLEAR     21  13  73 E6        30.21S WCI  13
$$

LSZ147-162-280500-
LAKE SUPERIOR

STATION/POSITION TIME  TEMP    WIND        PRES    WAVE
                       AIR SEA DIR/SP/G            HT/PER
                 (UTC) (F)     (DEG/KT/KT) (MB)    (FT/S)
DEVILS ISLAND    0300   22     130/  5/  6 1024.2R
PORT WING        0300   23     130/  2/  5 1022.4R
$$

LMZ867-665-643>646-280500-
LAKE MICHIGAN

STATION/POSITION TIME  TEMP    WIND        PRES    WAVE
                       AIR SEA DIR/SP/G            HT/PER
                 (UTC) (F)     (DEG/KT/KT) (MB)    (FT/S)
NORTHPORT PIER   0318   19      30/  8/ 13 1024.0R
SISTER BAY       0317   16        CALM       N/A
KEWAUNEE LAKESHO 0300   24      50/  9/ 13 1022.4R
SHEBOYGAN LAKESH 0300   25      20/  9/ 12 1024.6R
PORT WASHINGTON  0300   23     330/  3/  6 1024.0R
MILWAUKEE LAKESH 0300   26      30/ 10/ 13   N/A
KENOSHA   LAKESH 0300   27      10/ 12/ 17 1023.0R
$$

TC  - TEMPERATURE IN CELSIUS
VSB - VISIBILITY IN STATUTE MILES
WCI - WIND CHILL INDEX
HX  - HEAT INDEX




USA.gov is the U.S. government's official web portal to all federal, state and local government web resources and services.